Weather History for Lander, WY

Change the Weather History Date:

Sunday, August 10, 2014

  Actual Average Record
Temperature  
Mean Temperature 70 °F 71 °F  
Max Temperature 85 °F 87 °F 96 °F (1969)
Min Temperature 54 °F 56 °F 41 °F (1974)
Degree Days  
Heating Degree Days 0 0  
Month to date heating degree days 0 0  
Since 1 June heating degree days 139 142  
Since 1 July heating degree days 3 16  
Cooling Degree Days 5 7  
Month to date cooling degree days 40 70  
Year to date cooling degree days 323 347  
Since 1 June cooling degree days 305 342  
Growing Degree Days 20 (Base 50)    
Moisture  
Dew Point 45 °F    
Average Humidity 45    
Maximum Humidity 67    
Minimum Humidity 23    
Precipitation  
Precipitation 0.00 in 0.03 in 0.43 in (1908)
Month to date precipitation 0.65 0.26  
Year to date precipitation 6.06 8.53  
Snow  
Snow 0.00 in 0.00 in - ()
Month to date snowfall 0.0 0.0  
Since 1 June snowfall 0.0 0.1  
Since 1 July snowfall 0.0 0.0  
Snow Depth 0.00 in    
Sea Level Pressure  
Sea Level Pressure 30.15 in    
Wind  
Wind Speed 5 mph (West)    
Max Wind Speed 13 mph    
Max Gust Speed 15 mph    
Visibility 9 miles    
Events      
T = Trace of Precipitation, MM = Missing Value Source: NWS Daily Summary

Daily Weather History Graph

Daily Weather History Graph

Search for Another Location

Airport:

Trip Planner

Search our weather history database for the weather conditions in past years. The results will help you decide how hot, cold, wet, or windy it might be!

Date:

Astronomy

Aug. 10, 2014 Rise Set
Actual Time 6:15 AM MDT 8:23 PM MDT
Civil Twilight 5:44 AM MDT 8:54 PM MDT
Nautical Twilight 5:06 AM MDT 9:32 PM MDT
Astronomical Twilight 4:24 AM MDT 10:14 PM MDT
Moon 8:10 PM MDT (8/10) 6:13 AM MDT (8/10)
Length of Visible Light 15h 10m
Length of Day
14h 08m
Full, 100% of the Moon is Illuminated
Aug 10
Full
Aug 10
Full
Aug 17
Last Quarter
Aug 25
New
Sep 2
First Quarter

Hourly Weather History & Observations

Time (MDT) Temp. Dew Point Humidity Pressure Visibility Wind Dir Wind Speed Gust Speed Precip Events Conditions
12:53 AM 62.1 °F 45.0 °F 53% 30.10 in 10.0 mi Calm Calm - N/A   Clear
1:53 AM 59.0 °F 46.0 °F 62% 30.11 in 10.0 mi SW 3.5 mph - N/A   Clear
2:53 AM 57.2 °F 44.6 °F 63% 30.32 in 10.0 mi SW 4.6 mph - N/A   Clear
3:53 AM 57.9 °F 46.0 °F 65% 30.19 in 10.0 mi NW 3.5 mph - N/A   Mostly Cloudy
4:53 AM 57.9 °F 45.0 °F 62% 30.18 in 9.0 mi WSW 9.2 mph - N/A   Clear
5:53 AM 57.9 °F 45.0 °F 62% 30.19 in 9.0 mi WSW 8.1 mph - N/A   Clear
6:53 AM 55.0 °F 45.0 °F 69% 30.22 in 8.0 mi West 6.9 mph - N/A   Clear
7:53 AM 62.6 °F 46.4 °F 55% 30.38 in 8.0 mi WNW 4.6 mph - N/A   Clear
8:53 AM 64.9 °F 50.0 °F 58% 30.21 in 8.0 mi NNW 4.6 mph - N/A   Clear
9:53 AM 68.0 °F 50.0 °F 52% 30.19 in 8.0 mi NW 8.1 mph - N/A   Clear
10:53 AM 72.0 °F 48.0 °F 43% 30.19 in 9.0 mi NNE 6.9 mph - N/A   Clear
11:53 AM 75.0 °F 48.0 °F 38% 30.18 in 9.0 mi Calm Calm - N/A   Clear
12:53 PM 77.0 °F 46.0 °F 33% 30.16 in 9.0 mi Variable 3.5 mph - N/A   Unknown
1:53 PM 80.1 °F 48.0 °F 32% 30.13 in 9.0 mi SSE 6.9 mph - N/A   Clear
2:53 PM 81.0 °F 43.0 °F 26% 30.10 in 9.0 mi Calm Calm - N/A   Clear
3:53 PM 84.0 °F 43.0 °F 24% 30.07 in 9.0 mi North - - N/A   Clear
4:53 PM 82.9 °F 41.0 °F 23% 30.07 in 10.0 mi Calm Calm - N/A   Clear
5:53 PM 82.4 °F 42.8 °F 25% 30.25 in 9.0 mi North 5.8 mph - N/A   Clear
6:53 PM 82.0 °F 41.0 °F 23% 30.06 in 9.0 mi Calm Calm - N/A   Clear
7:53 PM 77.0 °F 41.0 °F 28% 30.06 in 9.0 mi NE 4.6 mph - N/A   Clear
8:53 PM 73.0 °F 44.1 °F 35% 30.08 in 10.0 mi WSW 10.4 mph - N/A   Scattered Clouds
9:53 PM 72.0 °F 44.1 °F 37% 30.09 in 10.0 mi SW 12.7 mph - N/A   Mostly Cloudy
10:53 PM 68.0 °F 43.0 °F 40% 30.09 in 10.0 mi SW 5.8 mph - N/A   Clear
11:53 PM 66.9 °F 43.0 °F 42% 30.10 in 10.0 mi Calm Calm - N/A   Mostly Cloudy